Location: Goll?ig?dem
(16.6773°N, 80.7332°E)
Time: 19:09:51
(UTC+00:00)

Meteor 1-31 Rocket - Pass Details

Date: 19 May 2025
Orbit: 471 x 488 km, 97.7° (Epoch: 23 June)

Event Time Altitude Azimuth Distance (km) Brightness Sun altitude
Exits shadow 13:53:57 - 176° (S) 2,357 5.8 -12.2°
Reaches altitude 10° 13:55:40 10° 179° (S) 1,633 5.0 -12.6°
Maximum altitude 13:59:07 59° 259° (W) 553 3.1 -13.3°
Drops below altitude 10° 14:02:37 10° 340° (NNW) 1,646 5.9 -14.1°
Sets 14:04:42 0° 344° (NNW) 2,528 6.9 -14.5°
